CW8593 Gava ES current weather conditions

sailwx.info

Wind from 206 at 5 knots gusting 13

Air temperature 16.1° C
Dewpoint 10.2° C

Last reported at 2016-Apr-29 14:42 UTC.
Time now 2016-Apr-29 15:55 UTC

Location: N 41°18' E 001°60'.
View on Google Maps.

See reports from other nearby stations

  
Tides and Currents Weather Stations Pressure Air Temp Water Temp Dewpoint Dewpoint Depression Visibility Wind Speed Wind Dir Waves Ship Positions
date/time (UTC)wind fromknots sea level pressurealtimeterstation pressurevisibilityair tempwater tempwave heightnotes
2016-Apr-29 14:42 206 5 gusting 13 16.1
2016-Apr-29 14:37 175 6 gusting 13 16.1
2016-Apr-29 14:32 154 6 gusting 11 16.7
2016-Apr-29 14:27 164 5 gusting 10 16.7
2016-Apr-29 14:22 192 5 gusting 10 16.7
2016-Apr-29 14:17 190 3 gusting 10 16.7
2016-Apr-29 14:07 171 6 gusting 14 16.1
2016-Apr-29 13:57 218 7 gusting 14 16.1
2016-Apr-29 13:52 172 7 gusting 13 16.1
2016-Apr-29 13:42 155 5 gusting 10 16.7
2016-Apr-29 13:32 204 4 gusting 10 16.1
2016-Apr-29 13:22 142 2 gusting 11 16.7
2016-Apr-29 13:17 180 4 gusting 8 16.7
2016-Apr-29 13:07 150 4 gusting 10 16.1
2016-Apr-29 13:02 136 6 gusting 10 16.1
2016-Apr-29 12:57 177 5 gusting 13 16.1
2016-Apr-29 12:47 145 4 gusting 10 16.1
2016-Apr-29 12:42 214 7 gusting 12 16.1
2016-Apr-29 12:22 199 6 gusting 13 15.6
2016-Apr-29 12:12 153 4 gusting 8 16.1
2016-Apr-29 12:07 209 5 gusting 10 16.1
2016-Apr-29 12:02 179 4 gusting 10 16.1
2016-Apr-29 11:57 192 5 gusting 10 16.1
2016-Apr-29 11:52 155 5 gusting 12 16.1
2016-Apr-29 11:42 176 6 gusting 10 16.1
2016-Apr-29 11:37 195 4 gusting 10 16.1
2016-Apr-29 11:32 216 4 gusting 7 16.1
2016-Apr-29 11:27 187 2 gusting 7 16.1
2016-Apr-29 11:12 217 5 gusting 10 16.1
2016-Apr-29 10:52 178 2 gusting 7 15.6
2016-Apr-29 10:37 150 4 gusting 10 15.6
2016-Apr-29 10:27 144 6 gusting 8 16.1
2016-Apr-29 10:12 162 3 gusting 7 16.1
2016-Apr-29 10:02 144 4 gusting 10 16.1
2016-Apr-29 09:52 138 1 gusting 7 15.6
2016-Apr-29 09:47 153 4 gusting 6 15.6
2016-Apr-29 09:42 153 4 gusting 7 15.6
2016-Apr-29 09:37 131 4 gusting 8 15.6
2016-Apr-29 09:32 149 3 gusting 6 15.0
2016-Apr-29 09:27 133 4 gusting 8 15.6
2016-Apr-29 09:17 175 4 gusting 7 15.6
2016-Apr-29 09:12 136 4 gusting 6 16.1
2016-Apr-29 09:07 109 2 gusting 6 16.1
2016-Apr-29 08:42 089 3 gusting 6 16.1
2016-Apr-29 08:37 090 4 gusting 8 16.1
2016-Apr-29 08:22 107 2 gusting 6 15.6
2016-Apr-29 08:12 136 2 gusting 6 15.0
2016-Apr-29 08:07 119 2 gusting 6 15.0
2016-Apr-29 08:02 107 2 gusting 6 15.0
2016-Apr-29 07:57 081 2 gusting 5 15.0
2016-Apr-29 07:47 078 1 gusting 6 15.0
2016-Apr-29 07:42 064 2 gusting 6 15.0
2016-Apr-29 07:32 046 0 gusting 2 14.4
2016-Apr-29 07:22 041 1 gusting 4 14.4
2016-Apr-29 07:17 034 2 gusting 5 14.4
2016-Apr-29 07:07 339 0 gusting 2 14.4
2016-Apr-29 07:02 338 0 gusting 1 14.4
2016-Apr-29 06:32 338 12.8
2016-Apr-29 06:22 338 12.2
2016-Apr-29 06:17 338 12.2
2016-Apr-29 06:07 338 11.7
2016-Apr-29 06:02 338 11.7
2016-Apr-29 05:57 338 11.7
2016-Apr-29 05:52 338 11.7
2016-Apr-29 05:47 338 11.7
2016-Apr-29 05:37 338 11.1
2016-Apr-29 05:32 338 11.1
2016-Apr-29 05:27 338 11.1
2016-Apr-29 05:22 338 11.1
2016-Apr-29 05:17 338 11.1
2016-Apr-29 05:02 338 11.1
2016-Apr-29 04:57 338 11.1
2016-Apr-29 04:52 338 11.1
2016-Apr-29 04:42 338 11.1
2016-Apr-29 04:32 338 11.1
2016-Apr-29 04:27 338 11.1
2016-Apr-29 04:22 338 11.1
2016-Apr-29 04:17 338 0 gusting 1 11.1
2016-Apr-29 04:07 338 11.1
2016-Apr-29 03:57 338 11.1
2016-Apr-29 03:32 338 11.1
2016-Apr-29 03:17 338 11.1
2016-Apr-29 02:42 338 11.7
2016-Apr-29 02:37 338 11.1
2016-Apr-29 02:32 338 11.1
2016-Apr-29 02:27 338 11.1
2016-Apr-29 02:17 338 0 gusting 1 11.1
2016-Apr-29 02:07 338 11.7
2016-Apr-29 01:42 338 11.1
2016-Apr-29 01:37 338 11.1
2016-Apr-29 01:32 338 11.1
2016-Apr-29 01:27 338 11.1
2016-Apr-29 01:17 338 11.1
2016-Apr-29 00:57 338 11.1
2016-Apr-29 00:47 338 11.1
2016-Apr-29 00:42 338 11.1
2016-Apr-29 00:37 338 11.1
2016-Apr-29 00:32 338 10.6
2016-Apr-29 00:27 338 10.6
2016-Apr-29 00:17 338 10.6
2016-Apr-29 00:12 338 10.6
2016-Apr-29 00:07 338 10.6
2016-Apr-28 23:57 338 11.1
2016-Apr-28 23:52 338 10.6
2016-Apr-28 23:47 338 10.6
2016-Apr-28 23:42 338 1 gusting 2 11.1
2016-Apr-28 23:22 338 11.1
2016-Apr-28 22:57 338 0 gusting 2 11.1
2016-Apr-28 22:52 338 11.1
2016-Apr-28 22:37 338 11.1
2016-Apr-28 22:32 338 0 gusting 1 11.1
2016-Apr-28 22:22 338 11.7
2016-Apr-28 22:17 338 11.7
2016-Apr-28 22:12 338 0 gusting 2 11.7
2016-Apr-28 22:07 337 1 gusting 2 11.7
2016-Apr-28 22:02 337 2 gusting 4 12.2
2016-Apr-28 21:57 289 12.2
2016-Apr-28 21:52 259 0 gusting 2 12.2
2016-Apr-28 21:47 256 12.2
2016-Apr-28 21:42 256 0 gusting 2 11.7
2016-Apr-28 21:37 256 11.7
2016-Apr-28 21:27 256 0 gusting 2 11.7
2016-Apr-28 21:22 256 11.7
2016-Apr-28 21:17 256 11.7
2016-Apr-28 21:12 256 0 gusting 2 11.7
2016-Apr-28 21:02 256 0 gusting 2 12.2
2016-Apr-28 20:57 256 1 gusting 2 12.2
2016-Apr-28 20:52 256 12.2
2016-Apr-28 20:37 256 1 gusting 4 12.2
2016-Apr-28 20:17 256 12.2
2016-Apr-28 20:12 257 0 gusting 2 12.2
2016-Apr-28 20:07 257 12.2
2016-Apr-28 20:02 257 0 gusting 2 12.2
2016-Apr-28 19:57 257 12.2
2016-Apr-28 19:52 257 0 gusting 2 12.2
2016-Apr-28 19:47 257 1 gusting 2 12.2
2016-Apr-28 19:42 257 1 gusting 2 12.2
2016-Apr-28 19:37 257 2 gusting 4 12.2
2016-Apr-28 19:32 257 1 gusting 2 12.2
2016-Apr-28 19:22 256 1 gusting 2 12.2
2016-Apr-28 19:17 255 0 gusting 1 12.2
2016-Apr-28 19:12 255 0 gusting 2 12.2
2016-Apr-28 19:07 255 0 gusting 2 12.2
2016-Apr-28 19:02 255 0 gusting 2 12.2
2016-Apr-28 18:57 255 0 gusting 2 12.2
2016-Apr-28 18:52 255 1 gusting 2 12.8
2016-Apr-28 18:47 255 0 gusting 2 12.8
2016-Apr-28 18:42 255 1 gusting 2 12.8
2016-Apr-28 18:37 255 0 gusting 2 13.3
2016-Apr-28 18:32 255 0 gusting 2 13.3
2016-Apr-28 18:22 255 13.3
2016-Apr-28 18:17 255 0 gusting 2 13.9
2016-Apr-28 18:07 255 13.9
2016-Apr-28 17:52 255 13.3
2016-Apr-28 17:47 255 0 gusting 1 13.3
2016-Apr-28 17:37 255 1 gusting 5 13.3
2016-Apr-28 17:22 209 1 gusting 5 13.9
2016-Apr-28 17:17 122 1 gusting 4 13.9
2016-Apr-28 17:12 121 0 gusting 2 13.9
2016-Apr-28 17:07 121 0 gusting 2 13.9
2016-Apr-28 16:52 121 1 gusting 2 13.9
2016-Apr-28 16:27 119 0 gusting 2 13.9
2016-Apr-28 16:22 119 1 gusting 2 13.9
2016-Apr-28 16:17 113 1 gusting 4 14.4
2016-Apr-28 15:57 107 1 gusting 4 13.9
2016-Apr-28 15:37 105 0 gusting 2 14.4
2016-Apr-28 15:27 052 0 gusting 2 15.0
2016-Apr-28 15:22 029 15.0
2016-Apr-28 15:07 029 14.4
2016-Apr-28 15:02 029 14.4
2016-Apr-28 14:57 029 13.9
2016-Apr-28 14:52 029 0 gusting 2 13.9
2016-Apr-28 14:37 034 0 gusting 4 13.3
2016-Apr-28 14:32 063 13.3
2016-Apr-28 14:27 063 1 gusting 4 13.3
2016-Apr-28 14:17 082 1 gusting 5 13.3
2016-Apr-28 13:57 045 1 gusting 4 13.3
2016-Apr-28 13:47 094 1 gusting 6 12.8
2016-Apr-28 13:42 107 2 gusting 5 12.8
2016-Apr-28 13:37 040 0 gusting 4 12.8
2016-Apr-28 13:27 019 1 gusting 5 13.3
2016-Apr-28 13:22 046 0 gusting 2 12.8
2016-Apr-28 13:17 045 1 gusting 6 12.8
2016-Apr-28 13:12 067 4 gusting 6 12.8
2016-Apr-28 13:07 025 2 gusting 4 12.8
2016-Apr-28 13:02 024 1 gusting 4 12.8
2016-Apr-28 12:57 079 3 gusting 5 12.8
2016-Apr-28 12:47 074 1 gusting 6 12.8
2016-Apr-28 12:42 042 2 gusting 6 12.8
2016-Apr-28 12:37 061 3 gusting 8 12.8
2016-Apr-28 12:32 069 2 gusting 8 12.8
2016-Apr-28 12:22 046 1 gusting 5 12.2
2016-Apr-28 12:17 043 4 gusting 8 12.2
2016-Apr-28 12:07 071 3 gusting 7 12.2
2016-Apr-28 12:02 065 0 gusting 6 12.2
2016-Apr-28 11:57 068 0 gusting 7 11.7
2016-Apr-28 11:52 061 1 gusting 8 11.7
2016-Apr-28 11:32 045 2 gusting 5 11.1
2016-Apr-28 11:27 056 2 gusting 8 11.1
2016-Apr-28 11:22 049 5 gusting 10 11.1
2016-Apr-28 11:12 047 2 gusting 5 11.1
2016-Apr-28 11:07 017 2 gusting 6 11.1
2016-Apr-28 11:02 047 0 gusting 7 10.6
2016-Apr-28 10:47 057 0 gusting 6 10.6
2016-Apr-28 10:42 061 1 gusting 6 10.6
2016-Apr-28 10:37 058 2 gusting 4 10.6
2016-Apr-28 10:32 037 2 gusting 4 10.6
2016-Apr-28 10:27 080 1 gusting 6 10.6
2016-Apr-28 10:22 110 0 gusting 4 10.6
2016-Apr-28 10:17 084 2 gusting 6 10.6
2016-Apr-28 10:12 093 1 gusting 5 10.6
2016-Apr-28 09:57 071 2 gusting 6 10.6
2016-Apr-28 09:52 035 0 gusting 2 10.6
2016-Apr-28 09:47 046 2 gusting 6 10.6
2016-Apr-28 09:42 102 2 gusting 8 10.6
2016-Apr-28 09:37 052 5 gusting 10 10.6
2016-Apr-28 09:22 082 4 gusting 6 10.6
2016-Apr-28 09:12 047 1 gusting 6 10.6
2016-Apr-28 08:52 046 4 gusting 6 10.6
2016-Apr-28 08:27 041 2 gusting 6 10.6
2016-Apr-28 08:22 030 1 gusting 6 10.6
2016-Apr-28 08:17 044 1 gusting 5 10.6
2016-Apr-28 08:12 052 2 gusting 6 10.6
2016-Apr-28 08:07 038 2 gusting 4 10.6
2016-Apr-28 08:02 075 1 gusting 6 10.6
2016-Apr-28 07:57 080 2 gusting 5 10.6
2016-Apr-28 07:52 031 1 gusting 2 10.6
2016-Apr-28 07:42 042 10.6
2016-Apr-28 07:37 042 0 gusting 4 11.1
2016-Apr-28 07:32 039 3 gusting 6 10.6
2016-Apr-28 07:27 068 2 gusting 6 10.6
2016-Apr-28 07:22 051 10.6
2016-Apr-28 07:17 019 10.6
2016-Apr-28 07:12 019 1 gusting 2 11.1
2016-Apr-28 07:02 045 2 gusting 8 11.1
2016-Apr-28 06:57 049 1 gusting 4 11.1
2016-Apr-28 06:47 044 5 gusting 7 11.1
2016-Apr-28 06:42 061 3 gusting 10 10.6
2016-Apr-28 06:37 038 2 gusting 7 10.6
2016-Apr-28 06:32 042 3 gusting 8 10.6
2016-Apr-28 06:27 046 4 gusting 11 10.6
2016-Apr-28 06:22 060 1 gusting 6 10.6
2016-Apr-28 06:17 030 1 gusting 10 10.6
2016-Apr-28 06:07 015 1 gusting 4 10.6
2016-Apr-28 06:02 003 0 gusting 4 10.6
2016-Apr-28 05:57 072 10.6
2016-Apr-28 05:52 026 0 gusting 4 10.6
2016-Apr-28 05:47 039 1 gusting 4 10.6
2016-Apr-28 05:37 063 1 gusting 7 10.6
2016-Apr-28 05:27 010 2 gusting 6 10.6
2016-Apr-28 05:22 044 3 gusting 10 10.6
2016-Apr-28 05:17 045 6 gusting 11 10.6
2016-Apr-28 05:12 048 7 gusting 11 10.6
2016-Apr-28 04:57 044 6 gusting 11 10.6
2016-Apr-28 04:32 003 0 gusting 2 10.6
2016-Apr-28 04:27 003 1 gusting 5 10.6
2016-Apr-28 04:17 10.6
2016-Apr-28 04:07 010 2 gusting 4 10.6
2016-Apr-28 04:02 005 1 gusting 6 10.6
2016-Apr-28 03:47 358 2 gusting 6 10.6
2016-Apr-28 03:42 342 3 gusting 5 10.6
2016-Apr-28 03:32 345 3 gusting 7 10.6
2016-Apr-28 03:22 341 2 gusting 5 10.6
2016-Apr-28 03:17 347 2 gusting 5 10.6
2016-Apr-28 03:02 10.6
2016-Apr-28 02:57 357 1 gusting 4 10.6
2016-Apr-28 02:52 10.6
2016-Apr-28 02:47 011 2 gusting 5 10.6
2016-Apr-28 02:37 346 1 gusting 4 10.6
2016-Apr-28 02:27 346 2 gusting 4 10.6
2016-Apr-28 02:22 346 0 gusting 5 10.6
2016-Apr-28 02:17 346 0 gusting 2 10.6
2016-Apr-28 02:07 347 1 gusting 4 10.6
2016-Apr-28 01:57 349 4 gusting 6 10.6
2016-Apr-28 01:52 10.6
2016-Apr-28 01:47 355 2 gusting 6 10.6
2016-Apr-28 01:42 340 1 gusting 4 10.6
2016-Apr-28 01:37 342 2 gusting 6 10.6
2016-Apr-28 01:32 011 4 gusting 6 10.6
2016-Apr-28 01:27 336 2 gusting 7 10.6
2016-Apr-28 01:22 022 1 gusting 5 10.6
2016-Apr-28 01:17 352 2 gusting 6 10.6
2016-Apr-28 01:12 356 4 gusting 6 11.1
2016-Apr-28 01:07 355 0 gusting 5 11.1
2016-Apr-28 00:57 012 1 gusting 6 11.1
2016-Apr-28 00:52 015 2 gusting 5 11.1
2016-Apr-28 00:42 355 1 gusting 4 11.1
2016-Apr-28 00:32 349 2 gusting 5 11.1
2016-Apr-28 00:27 344 0 gusting 2 11.1
2016-Apr-28 00:22 343 1 gusting 2 11.1
2016-Apr-28 00:17 342 2 gusting 5 11.1
2016-Apr-28 00:12 003 2 gusting 5 11.1
2016-Apr-28 00:07 003 1 gusting 2 11.1
2016-Apr-27 23:57 11.1
2016-Apr-27 23:47 11.1
2016-Apr-27 23:42 340 1 gusting 2 11.1
2016-Apr-27 23:32 336 1 gusting 5 11.1
2016-Apr-27 23:27 327 1 gusting 2 11.1
2016-Apr-27 23:17 340 0 gusting 2 11.1
2016-Apr-27 23:07 342 1 gusting 5 11.1
2016-Apr-27 23:02 343 0 gusting 4 11.1
2016-Apr-27 22:52 344 2 gusting 6 11.7
2016-Apr-27 22:47 336 1 gusting 6 11.7
2016-Apr-27 22:42 344 2 gusting 5 11.7
2016-Apr-27 22:37 341 3 gusting 5 11.7
2016-Apr-27 22:32 347 1 gusting 4 11.7
2016-Apr-27 22:17 007 2 gusting 5 12.2
2016-Apr-27 22:12 049 0 gusting 2 12.2
2016-Apr-27 22:07 049 1 gusting 2 12.8
2016-Apr-27 22:02 049 2 gusting 5 12.8
2016-Apr-27 21:57 032 2 gusting 6 12.8
2016-Apr-27 21:52 039 2 gusting 6 12.8
2016-Apr-27 21:42 057 1 gusting 5 13.3
2016-Apr-27 21:37 051 1 gusting 4 13.3
2016-Apr-27 21:32 051 3 gusting 5 13.3
2016-Apr-27 21:02 039 2 gusting 6 13.3
2016-Apr-27 20:57 052 1 gusting 6 13.3
2016-Apr-27 20:52 033 1 gusting 4 13.3
2016-Apr-27 20:42 047 0 gusting 6 13.3
2016-Apr-27 20:37 034 1 gusting 6 13.3
2016-Apr-27 20:32 018 3 gusting 6 13.3
2016-Apr-27 20:27 036 2 gusting 6 13.3
2016-Apr-27 20:22 046 2 gusting 4 13.3
2016-Apr-27 20:12 037 1 gusting 7 13.3
2016-Apr-27 20:07 036 3 gusting 7 13.3
2016-Apr-27 20:02 066 1 gusting 5 13.3
2016-Apr-27 19:57 028 2 gusting 5 13.3
2016-Apr-27 19:47 044 2 gusting 5 13.3
2016-Apr-27 19:42 061 5 gusting 7 13.3
2016-Apr-27 19:32 063 4 gusting 7 13.3
2016-Apr-27 19:27 107 1 gusting 4 13.3
2016-Apr-27 19:22 139 1 gusting 6 13.3
2016-Apr-27 19:07 030 2 gusting 6 13.3
2016-Apr-27 19:02 047 2 gusting 6 13.3
2016-Apr-27 18:57 037 1 gusting 6 13.3
2016-Apr-27 18:52 051 2 gusting 5 13.3
2016-Apr-27 18:47 084 3 gusting 7 13.3
2016-Apr-27 18:42 090 1 gusting 6 13.3
2016-Apr-27 18:37 098 4 gusting 6 13.3
2016-Apr-27 18:32 068 1 gusting 6 13.3
2016-Apr-27 18:27 056 2 gusting 7 13.3
2016-Apr-27 18:22 086 4 gusting 8 13.3
2016-Apr-27 18:17 055 0 gusting 7 13.3
2016-Apr-27 18:12 060 4 gusting 7 13.3
2016-Apr-27 18:07 062 2 gusting 8 13.3
2016-Apr-27 18:02 041 1 gusting 6 13.3
2016-Apr-27 17:57 079 4 gusting 7 13.3
2016-Apr-27 17:47 045 2 gusting 6 13.3
2016-Apr-27 17:42 046 3 gusting 8 13.3
2016-Apr-27 17:37 069 4 gusting 8 13.3
2016-Apr-27 17:27 044 2 gusting 8 13.3
2016-Apr-27 17:17 073 4 gusting 7 13.3
2016-Apr-27 17:12 043 3 gusting 7 13.3
2016-Apr-27 17:02 074 2 gusting 7 13.3
2016-Apr-27 16:57 076 2 gusting 7 13.3
2016-Apr-27 16:52 108 4 gusting 7 13.3
2016-Apr-27 16:42 095 6 gusting 8 13.3
2016-Apr-27 16:37 075 2 gusting 7 13.3
2016-Apr-27 16:32 102 5 gusting 10 13.3
2016-Apr-27 16:27 070 5 gusting 8 13.3
2016-Apr-27 16:22 090 5 gusting 8 13.3
2016-Apr-27 16:17 098 3 gusting 10 13.3
2016-Apr-27 16:12 066 2 gusting 7 13.3
2016-Apr-27 16:02 100 3 gusting 7 13.3
2016-Apr-27 15:52 100 3 gusting 6 13.3
2016-Apr-27 15:42 090 6 gusting 10 13.3
2016-Apr-27 15:37 118 5 gusting 7 13.9
2016-Apr-27 15:27 084 1 gusting 6 13.3
2016-Apr-27 15:22 080 3 gusting 11 13.3
2016-Apr-27 15:12 101 4 gusting 10 13.9
2016-Apr-27 15:07 149 4 gusting 8 13.9